User: anonymous   Login
Location: Wheeling
(40.0640°N, 80.7210°W)
Time: 23:38:02
(UTC-04:00)
Language:

NOAA 18 - Orbit

View from above orbital plane
View from above orbital plane
View from above satellite
View from above satellite

Ground track
Ground track

The orbit data is extracted from the following two-line orbital elements,

1 28654U 05018A   21289.56398491  .00000099  00000-0  77562-4 0  9995
2 28654  98.9818 354.8384 0013331 302.1674  57.8204 14.12647171845635
Epoch (UTC): 16 October 2021 13:32:08
Eccentricity: 0.0013331
inclination: 98.9818°
perigee height: 840 km
apogee height: 860 km
right ascension of ascending node: 354.8384°
argument of perigee: 302.1674°
revolutions per day: 14.12647171
mean anomaly at epoch: 57.8204°
orbit number at epoch: 84563

The dashed part of the orbit path shows where the satellite is in the earth's shadow,  

DLR